STARLINK-35282 (65658 NORAD) Tracking and Keplerian Element Data

This shows tracking and keplerian element data for the satellite.

Feedback or suggestion? Click here.




ElementValue
Catalog65658
NameSTARLINK-35282
Epoch Orbit1506
Epoch Day354.08854079
Epoch Year2025
RAAN35.5879
Inclination97.6025
Eccentricity6.85E-05
Argument of Perigee99.834
Mean Anonmoly260.2964
Mean Motion15.05655861
Decay Rate3.407E-05
L11 65658U 25211G 25354.08854079 .00003407 00000+0 24017-3 0 9991
L22 65658 97.6025 35.5879 0000685 99.8340 260.2964 15.05655861 15063



Live tracking and technical data element details for STARLINK-35282 (NORAD 65658). STARLINK-35282 can be tracked NOW for your location showing map with azimuth and elevation plus other details from your city location.







IsCatalogInMostPopularTable: catalog: 65658, numindb: 11
Update: records affected: 1



GetName: 65658 STARLINK-35282

Hit Count: updated at: Mon, 20 Apr 2026 09:52:50 GMT